Погода в Чернышковском

Россия / Волгоградская область     48°25′22″N   42°13′29″E
темп.,
°C
ветер,
м/с
пор.,
м/с
влажн.,
%
обл.,
%
осадки,
мм/ч
давл.,
гПа
погр.,
м
21 апреля, ср
ср2100:00+11ююз613910 0.0 1009514
03:00+9ююз7128785 0.0 1011725
06:00+9ююз81381100 0.1 1012854
09:00+11юз81182100 0.1 1015964
12:00+14юз6962100 0.1 10161441
15:00+15юз795472 0.1 10161594
18:00+14юз58555 0.0 1017380
21:00+10юз48755 0.0 1020156
22 апреля, чт
чт2200:00+8юз36795 0.0 102096
03:00+8зюз348220 0.0 102164
06:00+7зюз348165 0.0 102282
09:00+14з33602 0.0 1022553
12:00+17ююз33455 0.0 10231831
15:00+18ю333956 0.0 10222166
18:00+16ююв2349100 0.0 102283
21:00+13ю236376 0.0 102264
23 апреля, пт
пт2300:00+12ю1160100 0.0 102210
03:00+11ююз1161100 0.0 102213
06:00+10ссз237794 0.0 102272
09:00+13сз3368100 0.0 1022501
12:00+15зюз225766 0.7 1021818
15:00+16юз335439 1.6 10201290
18:00+15юз23600 1.1 1019619
21:00+12зюз11735 1.2 101911
24 апреля, сб
сб2400:00+10юз22795 0.0 101826
03:00+9зюз368533 0.0 1017110
06:00+9зюз3778100 0.0 1017149
09:00+14юз6963100 0.0 1017775
12:00+17юз811517 1.8 10161811
15:00+16зюз11135299 1.9 10152216
18:00+11зсз69715 0.2 1017860
21:00+8зюз22744 0.2 101817
25 апреля, вс
вс2500:00+8юз34770 0.0 101955
03:00+7юз337890 0.0 101940
06:00+7ююз2485100 0.0 1019102
09:00+12юз456166 0.1 1019837
12:00+15зюз4542100 0.0 10182040
15:00+15з3339100 0.0 10172001
18:00+13ссз2354100 0.0 101891
21:00+11всв2255100 0.0 101734